Location: Aranbee
(34.0885°N, 118.2342°W)
Time: 05:10:38
(UTC+00:00)

Courier 1B - Pass Details

Date: 27 November 2020
Orbit: 962 x 1209 km, 28.3° (Epoch: 17 January)

Event Time Altitude Azimuth Distance (km) Brightness Sun altitude
Exits shadow 12:11:35 25° 202° (SSW) 2,187 9.1 -29.7°
Drops below altitude 10° 12:17:30 10° 153° (SSE) 3,135 10.5 -28.5°
Sets 12:20:56 0° 141° (SE) 4,098 11.4 -27.8°
